Precipitable_Water
1.59 1.55 1.55 1.43 1.57 1.87 1.76 1.61 1.45 1.25 1.20 1.22 1.29 1.23 1.14 1.04 1.00 0.98 1.00 0.99 0.96 0.89 0.79 0.71 0.72 0.80 0.83 0.86 0.93 0.88 0.81 0.76
1.49 1.47 1.46 1.51 1.50 1.56 1.60 1.50 1.40 1.36 1.30 1.27 1.27 1.27 1.18 1.05 1.00 1.01 1.03 1.05 1.02 0.90 0.81 0.71 0.73 0.76 0.76 0.74 0.88 0.88 0.77 0.72
1.50 1.45 1.47 1.47 1.47 1.49 1.48 1.42 1.30 1.33 1.35 1.30 1.28 1.26 1.16 1.06 1.04 1.03 1.07 1.10 1.06 0.95 0.80 0.73 0.73 0.69 0.70 0.71 0.79 0.80 0.74 0.68
1.43 1.42 1.41 1.44 1.46 1.48 1.45 1.44 1.41 1.33 1.33 1.32 1.26 1.15 1.08 1.04 1.06 1.09 1.10 1.10 1.06 0.96 0.86 0.81 0.73 0.68 0.69 0.66 0.65 0.68 0.64 0.61
1.36 1.40 1.45 1.41 1.38 1.37 1.38 1.37 1.36 1.35 1.33 1.19 1.12 1.08 1.04 1.02 1.04 1.09 1.10 1.07 1.03 0.98 0.92 0.86 0.73 0.66 0.63 0.58 0.58 0.59 0.59 0.59
1.36 1.43 1.47 1.43 1.40 1.38 1.42 1.38 1.28 1.26 1.18 1.13 1.07 1.02 0.98 0.98 0.98 1.04 1.05 1.03 1.00 0.98 0.97 0.87 0.71 0.63 0.60 0.55 0.53 0.52 0.50 0.53
1.35 1.43 1.43 1.43 1.41 1.45 1.35 1.26 1.19 1.27 1.18 1.14 1.09 1.01 0.97 0.96 0.97 1.01 1.06 1.04 1.03 1.05 0.98 0.88 0.74 0.62 0.60 0.53 0.50 0.52 0.57 0.56
1.32 1.33 1.40 1.45 1.43 1.36 1.29 1.29 1.23 1.22 1.13 1.13 1.13 1.07 0.97 0.96 0.97 1.00 1.07 1.08 1.13 1.06 0.98 0.85 0.76 0.62 0.58 0.55 0.54 0.55 0.63 0.63
1.29 1.34 1.37 1.37 1.30 1.27 1.31 1.29 1.24 1.15 1.17 1.21 1.14 1.08 0.97 0.96 0.96 0.99 1.09 1.15 1.16 1.09 0.96 0.82 0.76 0.65 0.55 0.55 0.55 0.57 0.58 0.63
1.29 1.35 1.31 1.29 1.26 1.23 1.24 1.21 1.17 1.18 1.19 1.16 1.09 1.08 1.03 1.03 0.99 1.02 1.14 1.16 1.17 1.10 0.95 0.81 0.73 0.66 0.55 0.55 0.56 0.59 0.57 0.58
1.20 1.26 1.24 1.28 1.26 1.15 1.17 1.15 1.14 1.16 1.12 1.08 1.09 1.06 1.04 1.05 1.00 1.07 1.14 1.15 1.14 1.07 0.96 0.88 0.75 0.67 0.58 0.55 0.58 0.61 0.64 0.64
1.17 1.17 1.13 1.12 1.10 1.08 1.08 1.08 0.98 0.98 0.96 0.97 0.98 1.00 1.02 1.04 1.04 1.07 1.11 1.14 1.11 1.07 1.00 0.92 0.84 0.72 0.64 0.61 0.62 0.64 0.67 0.67
0.91 0.85 0.89 0.93 0.88 0.81 0.78 0.78 0.89 0.91 0.91 0.96 0.96 0.94 0.95 0.99 1.02 1.07 1.12 1.09 1.10 1.06 1.00 0.93 0.85 0.81 0.77 0.73 0.70 0.69 0.70 0.71
0.79 0.79 0.79 0.85 0.81 0.89 0.96 0.90 0.89 0.91 0.90 0.94 0.91 0.91 0.99 0.99 1.02 1.08 1.14 1.14 1.11 1.06 1.04 0.98 0.96 0.94 0.82 0.80 0.68 0.73 0.76 0.76
0.68 0.76 0.85 0.88 0.88 0.92 0.88 0.89 0.83 0.78 0.79 0.81 0.89 0.98 1.06 1.13 1.13 1.20 1.16 1.13 1.10 1.14 1.11 1.08 0.99 1.03 1.00 0.90 0.76 0.68 0.74 0.81
0.71 0.73 0.76 0.84 0.82 0.73 0.71 0.71 0.71 0.77 0.76 0.85 0.93 1.06 1.11 1.13 1.12 1.12 1.12 1.09 1.11 1.13 1.15 1.13 1.10 1.02 1.02 1.00 0.94 0.89 0.76 0.69
0.75 0.79 0.82 0.79 0.79 0.79 0.75 0.72 0.71 0.78 0.82 0.83 0.93 1.06 1.13 1.17 1.20 1.20 1.18 1.20 1.20 1.18 1.15 1.14 1.15 1.13 1.05 0.98 0.96 0.94 0.91 0.78
0.79 0.78 0.77 0.77 0.76 0.86 0.90 0.86 0.85 0.83 0.85 0.87 0.95 1.04 1.14 1.18 1.24 1.19 1.13 1.13 1.18 1.18 1.19 1.20 1.18 1.16 1.10 1.03 0.97 0.91 0.86 0.80
0.82 0.80 0.79 0.86 0.91 0.93 0.95 0.99 0.97 0.92 0.92 0.87 0.95 1.01 1.06 1.11 1.18 1.16 1.16 1.18 1.21 1.20 1.20 1.18 1.14 1.12 1.08 1.04 1.02 0.95 0.90 0.85
0.81 0.82 0.84 0.89 0.89 0.93 1.00 1.02 1.03 0.99 1.01 0.98 0.96 0.96 1.03 1.13 1.19 1.20 1.21 1.22 1.20 1.19 1.14 1.10 1.08 1.00 1.04 1.04 0.98 0.92 0.91 0.85
Wind_Speed
13 14 17 17 11 32 35 35 33 31 28 26 23 20 18 17 15 13 11 9 8 7 7 5 5 4 2 2 2 2 2 3
11 9 10 14 14 17 25 31 29 27 28 26 23 20 19 18 16 14 12 10 8 8 5 4 4 3 1 0 2 2 2 2
10 10 8 7 7 17 24 28 27 27 26 24 22 19 18 17 16 15 13 10 8 6 5 4 3 3 2 2 2 2 0 1
11 9 9 7 10 12 20 23 22 25 24 23 20 19 18 17 16 15 13 10 8 7 5 4 4 3 3 2 2 2 1 0
11 11 9 10 11 15 18 20 21 23 21 22 20 19 17 16 15 15 13 11 9 7 5 4 4 4 3 2 2 2 1 2
12 12 12 12 13 17 18 20 22 21 21 20 20 18 16 16 15 14 13 12 9 7 6 5 4 4 4 3 2 2 2 2
11 13 12 14 14 19 17 21 20 20 20 19 18 18 16 16 15 14 13 12 9 8 6 5 5 5 4 3 3 2 3 4
13 13 14 15 17 18 20 20 19 18 19 18 18 17 16 16 15 14 13 12 9 8 7 6 6 6 5 4 4 4 5 5
13 14 14 16 17 18 20 21 19 19 19 19 19 18 16 16 15 14 13 12 10 9 7 6 7 6 6 6 6 7 7 7
14 14 16 16 18 19 20 21 19 19 19 18 20 17 17 16 14 13 12 12 11 10 9 7 7 8 9 9 9 9 10 11
13 16 17 16 19 21 21 20 19 18 19 20 19 17 16 14 13 13 13 12 12 12 11 10 10 11 12 11 12 13 13 14
13 16 17 19 20 20 21 20 21 20 19 19 18 16 15 14 14 13 13 13 14 14 14 13 13 13 14 15 16 16 17 17
18 20 21 22 21 21 22 21 19 17 18 18 16 16 16 15 15 15 16 15 16 16 16 16 16 16 17 18 20 21 21 21
19 20 20 19 19 18 18 18 17 16 16 16 16 16 16 16 16 16 16 17 18 19 20 20 21 21 21 22 24 25 24 25
17 17 17 16 17 16 16 15 15 15 16 16 16 17 16 16 15 17 17 18 19 20 22 24 25 26 26 25 25 27 26 26
16 16 16 16 16 16 16 15 14 15 16 16 16 17 17 17 17 18 18 20 21 23 24 26 26 26 30 29 27 26 26 24
16 16 16 16 16 16 16 16 17 16 17 17 17 18 19 18 17 18 19 19 21 21 24 29 29 30 31 29 28 28 29 27
16 16 16 17 17 17 16 17 17 18 18 18 18 19 19 19 19 17 19 22 22 23 24 23 27 28 29 31 31 30 30 29
17 18 19 19 18 18 19 18 18 18 18 19 19 19 20 20 18 18 19 20 21 22 23 24 23 26 30 28 29 26 27 30
19 20 20 21 22 22 21 20 19 20 21 21 21 21 21 22 21 20 20 20 21 23 24 25 26 27 26 27 25 27 29 32
Wind_Direction
232 238 243 247 68 168 187 191 187 183 186 184 181 181 181 179 176 174 172 169 164 163 156 151 153 153 145 90 103 116 78 61
221 230 234 230 224 171 180 169 174 178 176 180 180 178 178 177 178 178 176 171 160 156 162 160 165 167 181 264 144 121 88 67
219 229 217 213 216 197 181 173 169 179 177 179 178 179 183 185 184 180 181 178 178 181 176 188 189 214 234 237 175 190 139 33
217 217 206 203 168 164 173 174 174 177 175 173 177 177 177 181 183 185 186 190 188 189 186 203 228 232 226 215 194 207 215 36
209 204 192 182 168 161 158 169 169 166 172 169 173 173 172 178 183 189 196 192 190 198 213 226 217 199 191 174 162 194 222 292
204 197 192 182 176 177 174 172 173 174 173 176 181 182 183 183 187 191 190 189 198 209 213 211 209 204 203 207 193 227 266 289
204 201 199 198 197 183 180 177 177 177 179 181 184 186 188 192 191 191 194 197 205 206 208 219 214 208 214 221 241 257 270 283
198 201 201 192 184 183 181 178 179 182 182 187 189 191 189 190 191 196 200 200 204 205 222 226 217 216 223 239 259 268 271 281
190 181 183 181 185 183 181 182 185 184 186 189 191 190 190 195 196 197 202 206 211 221 223 227 225 231 244 254 267 273 276 282
187 190 191 188 186 183 183 182 183 188 193 193 187 189 190 189 194 198 207 212 220 224 229 237 243 248 254 266 271 277 279 283
192 188 187 191 186 183 183 185 186 186 180 177 178 181 189 197 203 211 216 225 229 232 239 249 253 256 261 269 273 278 281 285
160 165 164 161 162 167 169 170 170 171 172 180 186 194 201 208 217 222 227 235 238 242 247 253 261 263 266 270 274 279 281 282
146 147 148 150 151 154 159 165 170 179 187 193 201 211 217 222 228 231 236 243 246 248 252 258 263 266 272 275 275 279 279 281
150 153 154 157 161 165 170 176 184 191 198 206 215 221 223 228 232 238 244 249 251 254 257 262 265 267 273 277 280 281 279 279
166 168 171 174 176 177 182 189 198 204 210 217 222 224 227 232 238 243 252 255 258 261 263 265 269 270 271 275 280 281 280 279
180 182 185 185 188 193 197 202 207 213 218 223 227 228 231 237 244 250 257 261 264 267 269 270 270 271 275 272 278 281 279 281
191 193 193 196 198 202 207 214 219 222 225 227 231 233 236 242 247 259 259 264 268 275 278 271 271 269 275 272 279 278 279 279
201 203 206 207 210 214 217 221 223 224 228 230 235 237 240 244 253 261 266 269 271 274 282 283 274 275 275 278 274 276 275 279
209 211 214 215 219 222 225 228 230 231 235 237 239 239 242 247 253 261 274 275 270 275 282 283 289 277 279 276 277 275 277 283
219 222 224 224 225 229 232 235 238 238 242 242 242 246 248 250 257 264 275 276 276 279 283 285 286 285 276 278 272 278 282 288